Location: Saint-Br�vin-les-Pins
(47.2500°N, 2.1670°W)
Time: 06:44:01
(UTC+02:00)

OTV 5 (USA 277) - Visible Passes

Search period start: 19 April 2019 00:00
Search period end: 29 April 2019 00:00
Orbit: 310 x 325 km, 54.5° (Epoch: 16 April)

Date Brightness Start Highest point End Pass type
(mag) Time Alt. Az. Time Alt. Az. Time Alt. Az.
19 Apr ? 04:03:14 12° NE 04:03:14 12° NE 04:03:42 10° NE visible
19 Apr ? 05:34:10 10° NW 05:36:41 34° NNE 05:39:10 10° E visible
20 Apr ? 04:17:42 17° NE 04:17:42 17° NE 04:18:54 10° ENE visible
20 Apr ? 05:48:50 10° NW 05:51:31 70° NNE 05:54:10 10° ESE visible
21 Apr ? 04:32:28 24° NE 04:32:28 24° NE 04:34:10 10° E visible
21 Apr ? 06:03:38 10° WNW 06:06:15 46° SW 06:08:49 10° SE visible
22 Apr ? 04:47:45 28° E 04:47:45 28° E 04:49:19 10° ESE visible
22 Apr ? 06:18:49 10° W 06:20:51 19° SW 06:22:50 10° S visible
23 Apr ? 05:03:49 13° SE 05:03:49 13° SE 05:04:09 10° SE visible
23 Apr ? 22:54:50 10° SW 22:56:31 32° SSW 22:56:31 32° SSW visible
24 Apr ? 23:09:34 10° WSW 23:12:16 59° NNW 23:12:53 43° NNE visible
25 Apr ? 21:50:14 10° SSW 21:52:46 36° SE 21:55:19 10° ENE visible
25 Apr ? 23:24:38 10° W 23:27:08 31° NNW 23:28:24 20° NNE visible
26 Apr ? 22:04:44 10° WSW 22:07:28 89° NW 22:10:12 10° ENE visible
26 Apr ? 23:39:53 10° WNW 23:42:05 21° NNW 23:43:19 16° NNE visible
27 Apr ? 22:19:40 10° W 22:22:17 41° NNW 22:24:53 10° NE visible
27 Apr ? 23:55:08 10° NW 23:57:07 18° N 23:57:53 16° NNE visible
28 Apr ? 22:34:50 10° WNW 22:37:11 25° NNW 22:39:33 10° NE visible
